Wind_Speed
11 10 11 10 10 11 14 15 14 13 13 14 11 10 11 8 8 6 5 4 3 3 3 4 6 7 8 10 11 12 12 10 17 13 16 14 9 9 9 11 12 15 14
13 11 11 11 11 12 13 14 13 13 13 11 12 13 11 10 8 6 5 2 1 1 2 3 5 6 7 9 10 10 10 10 15 14 11 10 14 4 17 8 9 17 17
18 15 13 13 13 13 14 15 15 14 13 12 11 11 10 9 7 6 4 3 2 2 3 4 5 6 7 8 9 10 11 10 11 13 11 7 6 23 1 14 9 22 19
19 18 16 15 14 15 15 15 15 14 15 14 13 11 9 8 7 6 5 5 5 6 6 7 7 7 8 9 11 12 12 11 10 8 11 7 10 9 16 12 24 18 25
21 20 18 16 15 17 16 16 15 15 14 12 11 10 9 8 7 7 7 6 7 8 8 9 10 11 12 12 12 13 14 13 11 10 11 10 11 7 17 25 25 27 24
23 20 18 18 16 17 18 17 16 15 14 13 11 10 9 9 9 8 7 7 7 8 9 9 9 9 9 10 11 12 12 12 12 11 11 11 12 15 15 24 29 31 26
29 27 25 22 20 19 19 18 16 16 15 14 13 13 12 11 10 9 7 7 7 8 8 9 10 11 12 12 13 13 13 13 12 13 11 11 11 13 16 22 28 33 34
32 30 28 25 23 21 19 18 17 17 16 14 13 13 12 11 10 9 8 8 8 9 10 11 12 12 12 12 12 12 13 13 13 13 13 12 12 13 16 19 26 39 28
33 31 28 25 24 22 20 19 18 17 16 15 13 12 12 11 10 9 9 9 9 10 11 11 11 11 12 12 12 12 13 14 14 13 15 15 14 16 17 18 19 25 39
37 35 31 27 24 22 21 20 18 17 16 14 13 11 11 10 10 9 9 9 10 10 10 10 10 11 13 14 15 14 15 15 15 15 17 16 17 18 18 18 19 21 28
44 40 34 29 26 24 23 22 20 19 17 15 13 12 11 10 10 9 9 9 10 9 10 10 11 13 14 15 15 15 16 16 17 18 17 17 18 18 17 18 20 22 25
45 41 37 34 30 27 25 23 21 19 17 15 14 13 12 11 10 10 9 9 10 10 10 11 12 13 14 15 15 16 17 16 16 17 18 17 19 19 19 21 21 24 27
41 40 38 37 33 29 26 24 22 20 18 17 15 14 13 12 11 10 10 10 10 10 11 11 11 12 14 15 16 16 17 15 15 15 16 17 20 20 23 25 25 27 29
45 42 40 38 35 32 29 26 23 22 20 18 16 15 14 13 12 11 10 10 10 10 10 11 11 12 14 15 16 16 17 16 16 17 16 16 20 24 28 27 28 29 32
45 45 44 42 38 34 30 27 25 24 22 19 17 16 16 14 13 12 11 10 10 9 10 10 10 11 13 15 16 17 16 16 16 15 16 18 25 29 31 33 34 33 34
47 46 44 42 40 37 34 30 28 25 23 20 19 18 18 16 14 12 11 10 9 9 9 8 8 10 12 13 15 16 14 14 14 16 18 19 19 29 33 34 32 30 31
50 50 49 46 42 38 36 34 31 28 25 22 21 20 19 17 15 13 11 10 8 8 7 7 7 8 11 12 14 15 14 13 15 16 18 21 22 27 35 36 32 26 27
48 48 48 46 42 39 36 33 32 30 26 24 22 21 20 18 16 14 11 10 8 7 6 6 6 7 10 11 13 13 13 13 14 17 19 24 26 29 34 35 31 27 27
53 54 51 48 42 41 39 36 33 30 27 25 24 22 21 19 17 14 12 10 8 7 5 5 6 7 8 11 12 13 13 14 15 17 20 24 26 28 31 33 32 32 33
42 49 52 49 46 44 42 38 35 32 28 26 25 23 22 19 17 15 13 11 9 7 5 5 6 6 8 11 13 14 14 15 16 18 19 21 24 26 29 31 29 34 39
45 47 51 55 55 51 48 42 38 34 29 27 26 25 22 20 18 16 13 11 9 7 5 4 5 6 8 10 12 14 15 17 17 18 20 21 22 24 28 32 31 33 38
44 50 52 53 57 57 53 44 40 34 31 29 28 26 24 21 19 16 14 11 9 7 5 4 4 5 6 9 12 14 16 17 17 17 18 19 20 23 27 30 33 35 32
45 53 52 49 48 57 55 50 40 36 34 31 29 27 25 22 19 16 14 12 9 7 5 4 4 3 6 8 10 13 14 16 17 17 17 19 22 25 27 29 32 31 34
45 48 48 49 50 60 55 49 42 39 36 33 30 28 26 24 20 16 14 11 10 8 6 5 4 4 5 8 10 12 14 16 17 17 19 21 23 26 26 25 27 26 30
44 49 50 51 55 62 58 50 45 40 37 33 30 29 26 23 21 16 14 13 12 10 8 6 5 5 5 8 10 12 14 16 16 17 20 23 25 24 25 25 25 25 30
43 46 48 49 51 56 54 48 46 42 38 35 32 29 28 23 21 19 18 14 12 9 8 6 5 5 5 6 9 11 12 14 15 18 20 23 24 23 24 26 28 29 31
Wind_Direction
147 147 151 155 161 169 187 191 189 185 183 167 177 180 189 172 186 181 178 186 239 264 284 298 304 311 313 319 322 328 330 334 320 326 308 313 309 294 268 309 314 306 318
156 150 149 150 154 166 176 183 184 186 182 190 195 188 180 175 166 159 163 167 214 304 319 347 347 348 345 342 342 343 351 356 350 349 339 330 331 205 293 308 327 297 323
167 161 152 150 151 157 166 176 184 184 183 179 180 176 167 155 148 147 150 130 99 42 22 19 15 10 5 2 359 359 360 8 8 7 19 344 322 325 319 320 318 328 321
174 167 161 155 155 158 160 163 166 169 170 168 168 160 150 153 153 139 111 89 76 67 61 52 43 34 28 21 16 15 17 21 12 13 11 357 331 327 322 309 327 318 329
180 172 167 162 158 164 165 167 169 170 168 168 166 164 160 153 141 122 106 91 72 57 50 41 34 29 25 19 18 18 20 18 18 11 359 352 342 322 307 306 315 321 325
182 177 172 164 161 167 168 169 170 169 168 170 168 165 159 144 132 123 108 92 75 62 55 47 42 38 35 32 29 27 22 22 17 12 2 353 346 326 321 311 314 317 322
182 179 176 172 169 168 168 166 165 163 161 162 158 153 146 137 131 120 114 102 85 75 67 59 52 48 44 37 32 27 22 17 14 6 360 349 341 330 321 315 315 316 321
185 184 180 175 173 170 167 166 162 163 159 155 150 145 140 136 130 124 117 106 91 78 66 58 53 50 44 39 36 29 22 15 10 3 356 354 342 334 325 320 320 320 318
186 185 181 179 174 172 172 168 165 162 159 156 150 145 140 135 128 120 111 100 90 76 67 63 59 54 48 45 42 34 27 23 14 4 355 352 342 335 331 326 323 317 314
184 184 183 179 177 173 173 169 167 165 163 158 150 145 141 136 128 118 111 102 91 83 76 71 67 58 50 45 42 35 26 22 15 8 4 359 350 347 339 335 326 320 311
184 182 181 178 176 174 174 171 169 168 166 163 158 154 148 140 131 124 116 107 100 93 82 75 65 55 48 44 41 37 29 24 17 12 6 2 357 349 342 336 329 322 319
183 179 177 174 176 175 174 173 172 170 171 169 166 159 154 147 140 134 126 114 104 93 84 74 64 54 49 44 39 35 29 23 15 9 6 360 357 355 346 340 334 328 325
181 178 176 176 176 176 174 174 173 171 172 171 168 164 158 151 148 141 127 116 105 96 85 76 68 57 51 44 39 36 31 22 14 7 4 358 358 352 348 346 337 333 331
184 180 179 176 178 177 176 175 173 174 172 170 168 167 163 159 154 145 135 125 114 101 87 77 70 58 50 44 41 39 34 24 15 10 4 357 357 353 349 345 339 335 331
186 184 181 178 178 177 176 176 175 176 174 171 170 173 170 165 160 153 143 132 119 105 90 81 73 62 49 41 38 34 30 21 14 6 2 355 357 354 350 345 342 338 336
190 187 183 179 179 178 176 176 177 177 176 174 174 177 173 168 164 158 149 137 124 105 95 89 76 61 48 36 31 25 26 11 4 2 0 357 349 347 348 346 343 342 334
189 189 186 182 179 180 177 179 179 178 177 176 178 179 175 170 166 161 152 142 129 119 104 90 74 59 44 33 28 22 23 8 3 1 358 356 351 351 347 348 347 335 332
191 190 186 183 181 180 179 178 178 179 177 177 180 179 176 173 170 164 158 150 141 134 116 87 72 57 42 31 23 14 18 8 2 360 359 359 359 355 350 350 344 338 336
193 189 187 180 176 178 178 178 176 177 179 179 181 181 180 176 172 166 164 160 150 141 117 92 66 46 29 22 16 13 17 10 5 5 2 3 3 357 355 355 349 345 343
189 185 184 181 179 180 178 177 178 181 181 182 183 183 181 177 173 172 170 165 157 144 134 88 60 38 21 19 14 12 17 13 11 10 8 5 3 358 359 360 352 352 356
188 184 182 181 184 180 184 181 183 185 183 183 183 182 180 177 178 175 172 166 157 150 125 87 58 42 31 16 14 16 20 16 15 9 9 7 1 2 5 4 358 1 2
184 183 181 180 184 193 190 182 185 182 182 184 183 181 180 179 179 177 173 166 160 148 134 107 70 49 29 27 19 19 21 18 17 10 7 4 2 5 9 6 4 4 358
186 180 184 181 183 191 191 190 183 180 182 182 180 179 181 181 179 175 172 167 162 156 146 126 104 73 47 34 31 31 24 20 17 10 6 4 1 3 5 9 8 6 2
186 184 184 185 183 190 190 193 184 183 182 178 178 179 181 180 177 171 171 169 165 161 156 146 127 89 57 44 38 35 30 23 19 9 14 11 10 9 3 359 1 2 1
186 184 185 184 183 187 188 188 186 182 179 176 177 177 180 178 174 171 170 173 176 172 168 155 127 103 71 49 41 35 30 23 17 17 18 15 12 7 4 1 359 360 2
188 186 188 186 181 180 181 183 184 183 179 175 176 176 178 175 174 181 179 179 175 174 167 148 129 105 80 59 50 39 29 25 20 28 20 17 14 9 3 2 1 3 3
Height
1538 1538 1539 1540 1542 1542 1544 1545 1546 1547 1549 1551 1553 1555 1555 1556 1557 1557 1557 1557 1557 1557 1557 1556 1555 1554 1553 1551 1549 1547 1546 1545 1540 1539 1536 1534 1534 1535 1530 1531 1531 1529 1525
1537 1538 1539 1540 1541 1542 1543 1545 1547 1548 1549 1551 1552 1553 1554 1555 1556 1556 1556 1556 1556 1556 1555 1554 1553 1552 1551 1550 1548 1546 1545 1543 1539 1536 1534 1532 1531 1530 1527 1527 1528 1522 1520
1536 1538 1539 1540 1541 1542 1543 1545 1546 1548 1549 1551 1552 1553 1554 1556 1556 1556 1556 1555 1555 1555 1554 1553 1552 1551 1550 1548 1547 1545 1543 1542 1541 1537 1536 1535 1533 1526 1526 1524 1522 1518 1514
1534 1536 1538 1539 1541 1541 1543 1544 1546 1547 1549 1551 1552 1553 1555 1555 1555 1555 1555 1555 1555 1555 1554 1553 1552 1551 1549 1547 1545 1543 1542 1541 1541 1541 1538 1536 1534 1531 1523 1520 1518 1515 1511
1532 1533 1536 1538 1539 1541 1542 1544 1546 1547 1548 1549 1551 1552 1553 1554 1555 1555 1555 1555 1555 1554 1553 1552 1551 1550 1548 1546 1545 1543 1541 1540 1540 1540 1538 1536 1534 1534 1529 1517 1513 1511 1508
1528 1532 1534 1536 1538 1539 1541 1544 1546 1547 1548 1550 1551 1552 1553 1554 1555 1556 1556 1556 1556 1555 1554 1553 1552 1551 1549 1548 1546 1544 1542 1540 1539 1538 1537 1536 1534 1532 1527 1520 1513 1507 1503
1522 1526 1529 1533 1536 1537 1539 1542 1544 1546 1547 1550 1550 1552 1553 1554 1555 1556 1557 1557 1556 1556 1555 1553 1552 1550 1549 1548 1546 1544 1542 1540 1538 1537 1537 1535 1533 1531 1527 1520 1512 1503 1497
1516 1521 1524 1528 1532 1535 1538 1540 1543 1544 1547 1549 1550 1551 1553 1554 1555 1556 1556 1556 1555 1556 1555 1553 1552 1551 1550 1548 1546 1544 1542 1540 1539 1536 1534 1533 1531 1528 1524 1519 1511 1497 1494
1510 1517 1522 1526 1529 1533 1537 1539 1541 1543 1546 1548 1549 1551 1552 1554 1555 1555 1555 1555 1555 1555 1555 1554 1553 1552 1551 1549 1546 1544 1542 1540 1538 1536 1533 1530 1528 1524 1520 1517 1513 1507 1490
1501 1510 1516 1521 1526 1530 1535 1537 1540 1542 1544 1546 1547 1550 1552 1553 1554 1554 1555 1555 1555 1556 1555 1555 1554 1552 1550 1548 1546 1544 1542 1539 1537 1535 1532 1529 1526 1522 1518 1515 1512 1508 1500
1489 1499 1508 1516 1522 1527 1531 1534 1538 1540 1542 1545 1546 1549 1551 1553 1554 1554 1555 1555 1555 1556 1555 1555 1554 1552 1550 1547 1546 1544 1541 1539 1537 1534 1531 1528 1524 1520 1517 1514 1509 1505 1499
1482 1492 1500 1509 1518 1523 1528 1531 1535 1538 1540 1543 1545 1547 1549 1552 1553 1554 1555 1554 1555 1554 1555 1554 1554 1552 1550 1548 1545 1543 1540 1538 1536 1533 1530 1528 1523 1519 1516 1511 1506 1501 1495
1484 1489 1496 1502 1511 1518 1524 1528 1532 1535 1538 1541 1543 1546 1548 1550 1551 1553 1553 1554 1554 1554 1554 1553 1554 1552 1550 1548 1545 1542 1539 1538 1536 1533 1530 1527 1521 1518 1513 1508 1503 1497 1490
1476 1482 1491 1496 1505 1512 1519 1524 1528 1532 1536 1539 1542 1543 1546 1548 1550 1551 1553 1553 1554 1553 1553 1552 1553 1552 1550 1547 1544 1541 1539 1538 1535 1533 1530 1526 1521 1516 1510 1505 1499 1493 1486
1470 1475 1481 1488 1498 1506 1513 1520 1524 1529 1533 1536 1539 1541 1544 1546 1549 1551 1552 1552 1552 1552 1551 1552 1552 1551 1549 1546 1542 1540 1539 1537 1535 1533 1529 1524 1519 1514 1509 1502 1495 1489 1481
1461 1469 1477 1484 1492 1499 1506 1514 1520 1525 1530 1532 1536 1538 1541 1544 1547 1549 1550 1550 1550 1550 1551 1551 1551 1549 1547 1544 1541 1539 1538 1537 1534 1531 1527 1523 1519 1512 1506 1501 1495 1488 1480
1448 1459 1467 1475 1484 1494 1501 1508 1514 1520 1525 1529 1532 1535 1539 1541 1543 1546 1547 1548 1549 1549 1550 1550 1549 1548 1545 1543 1541 1538 1537 1536 1532 1529 1525 1521 1516 1509 1502 1496 1490 1485 1479
1443 1454 1463 1472 1479 1488 1497 1504 1510 1515 1520 1525 1528 1532 1536 1538 1541 1543 1545 1546 1547 1548 1548 1548 1547 1545 1543 1542 1540 1538 1536 1534 1531 1527 1523 1518 1513 1506 1499 1492 1487 1481 1474
1428 1437 1454 1464 1473 1482 1491 1498 1505 1511 1516 1519 1524 1528 1532 1535 1538 1540 1543 1545 1546 1546 1546 1546 1545 1543 1542 1540 1539 1537 1535 1532 1529 1525 1521 1515 1510 1505 1499 1492 1484 1477 1469
1430 1436 1446 1456 1466 1475 1484 1492 1498 1504 1510 1514 1519 1523 1528 1532 1535 1537 1540 1543 1544 1544 1545 1543 1542 1541 1540 1539 1537 1535 1532 1530 1526 1523 1519 1515 1509 1504 1498 1490 1483 1473 1464
1421 1432 1440 1445 1453 1464 1475 1483 1491 1498 1505 1511 1514 1519 1526 1529 1532 1535 1538 1540 1541 1542 1542 1541 1540 1539 1538 1537 1536 1533 1530 1527 1524 1521 1517 1513 1509 1504 1497 1489 1482 1473 1463
1414 1423 1431 1439 1445 1457 1468 1477 1485 1494 1500 1506 1511 1516 1521 1526 1530 1533 1536 1537 1539 1540 1540 1539 1538 1538 1537 1536 1534 1531 1528 1525 1522 1519 1516 1512 1508 1502 1495 1488 1480 1471 1464
1407 1413 1425 1436 1444 1451 1462 1471 1480 1487 1493 1500 1506 1513 1518 1523 1526 1530 1532 1535 1536 1537 1537 1537 1537 1537 1536 1534 1532 1530 1527 1524 1521 1518 1514 1510 1505 1500 1494 1487 1480 1472 1463
1403 1411 1421 1429 1435 1444 1456 1466 1474 1481 1488 1494 1502 1508 1514 1519 1523 1526 1529 1531 1533 1534 1535 1536 1536 1535 1534 1532 1530 1528 1526 1523 1520 1516 1512 1508 1503 1498 1492 1486 1480 1473 1464
1396 1403 1412 1419 1425 1436 1447 1458 1467 1475 1482 1490 1498 1503 1509 1515 1518 1522 1525 1527 1529 1531 1532 1533 1533 1532 1531 1530 1528 1526 1524 1522 1519 1514 1511 1507 1502 1497 1492 1486 1480 1473 1464
1391 1399 1407 1415 1421 1430 1441 1450 1460 1469 1475 1484 1492 1498 1504 1509 1513 1517 1520 1523 1526 1528 1529 1530 1530 1530 1529 1528 1527 1525 1523 1520 1517 1513 1510 1506 1502 1497 1492 1485 1478 1471 1463